Погода в Безенчуке

Погода в Безенчуке : погода сейчас, прогноз погоды и архив. Всё, что Вы хотите узнать о погоде в Безенчуке!

Хотите узнать прогноз погоды в Безенчуке? Тогда Вам сюда: Погода в Безенчуке

Поиск расширенной информации на нашем сайте:

Другие новости

Новости СМИ2

Главная страница сайта

Новости сайта

03.07.2017

Напоминаем, что на нашем специализированном сайте Метеоцентр.Азия вы можете получить высокодетализированные автоматические прогнозы погоды по пунктам России, СНГ и мира в авиационном формате (включающие направление и скорость ветра, видимость, явления погоды, количество и форму облачности, нижнюю и верхнюю границу облачности).


Погода в Безенчуке - сегодня

Время (UTC), дата Ветер
(°,м/с) 
Видим.   Явления Облачность Т
(°С)
Тd
(°С)
f(%) Тe
(°С)
Pmin
(гПа)
dP
(гПа)
Po
(мм)
O2
(г/м3)
Тmin Tmax R s Состояние
почвы
18 17.11.17 270 (З) 23000 м    10/10 600 м 
[Sc]
+2.2 -0.8 81 +1  1025.1  0.8  764  306           
21 17.11.17 260 (З) 21000 м    10/10 600 м 
[Sc]
+2.3 -1.7 75 +1  1025.7  0.6  765  306           
00 18.11.17 230 (ЮЗ) 22000 м    10/10 600 м 
[Sc]
+1.8 -1.2 80 +1  1025.9  0.2  765  306           
03 18.11.17 220 (ЮЗ) 22000 м    10/10 600 м 
[Sc]
+1.5 -2.2 76 +1  1025.5  -0.4  764  307  +1.5         
06 18.11.17 220 (ЮЗ) 20000 м    9/0 верхняя 
[Ci fib]
+1.3 -1.6 81 -1  1024.8  -0.7  764  307  +0.1         
09 18.11.17 250 (З) 5{11}  20000 м    10/3 600 м средняя 
[Sc|Ac As]
+3.1 -1.1 74 +1  1025.4  0.6  764  305           
12 18.11.17 230 (ЮЗ) 3{11}  20000 м    10/0 средняя, верхняя 
[As trans|Ci fib]
+1.8 -1.3 80 1025.6  0.2  765  306           
15 18.11.17 220 (ЮЗ) 22000 м    10/0 верхняя 
[Ci sp]
+1 -1.7 82 1026.1  0.5  765  307    +3.2       
18 18.11.17 200 (Ю) 23000 м    10/0 верхняя 
[Ci fib]
+0.9 -1.2 86 1026.3  0.3  765  307           
21 18.11.17 210 (ЮЗ) 23000 м    10/0 верхняя 
[Ci fib]
+0.4 -0.8 92 +1  1026.8  0.5  765  308           
00 19.11.17 210 (ЮЗ) 22000 м    ясно 
-0.4 -1.7 91 -1  1026.9  0.1  766  309           
03 19.11.17 160 (Ю) 25000 м    ясно 
-1.8 -2.6 94 -3  1026.4  -0.5  765  311  -1.8         
06 19.11.17 160 (Ю) 20000 м    9/5 1000 м средняя, верхняя 
[Sc|Ac trans|Ci fib]
-0.3 -1.5 92 -1  1026.3  0.1  765  309  -2.2         
09 19.11.17 150 (ЮВ) 20000 м    9/0 средняя, верхняя 
[Ac trans|Cc]
+2.2 -1.6 76 +2  1025.6  -0.7  765  306           
12 19.11.17 160 (Ю) 20000 м    10/5 1000 м средняя, верхняя 
[Sc|Ac trans|Ci fib]
+1.2 -0.9 86 +1  1024.2  -1.3  764  306           
15 19.11.17 160 (Ю) 21000 м    10/10 300 м 
[Frnb]
+0.7 -1.2 87 -1  1023.6  -0.6  763  307    +2.2       
18 19.11.17 150 (ЮВ) 22000 м    10/10 600 м 
[Frnb]
+0.7 -0.8 90 1022.6  -1  762  306           
21 19.11.17 140 (ЮВ) 24000 м    10/10 600 м 
[Frnb]
+0.9 -0.7 89 1022.1  -0.5  762  306           
00 20.11.17 140 (ЮВ) 23000 м    10/10 360 м 
[]
+1.5 -0 90 +1  1021.2  -0.9  761  305           
03 20.11.17 170 (Ю) 23000 м    10/10 500 м 
[St]
+2.2 +0.3 87 +2  1020.6  -0.6  761  304  +0.5         
06 20.11.17 160 (Ю) 20000 м    10/10 600 м 
[Sc]
+2.5 +0.1 84 +1  1020.5  -0.1  761  304           
09 20.11.17 150 (ЮВ) 20000 м    10/10 600 м 
[Sc]
+3.9 +0.5 78 +3  1020.2  -0.3  761  302           
12 20.11.17 130 (ЮВ) 20000 м    9/6 600 м средняя, верхняя 
[Sc|Ac As|Ci fib]
+4.8 +1.2 77 +4  1019.8  -0.3  760  301           
15 20.11.17 100 (В) 21000 м    4/3 600 м верхняя 
[Sc|Ci fib]
+1.3 -0.2 90 +1  1019.8  0.1  760  305    +4.9       
18 20.11.17 090 (В) 21000 м    ясно 
+0.3 -1 91 1018.9  -0.9  760  306           
Время (UTC), дата Ветер
(°,м/с) 
Видим.   Явления Облачность Т
(°С)
Тd
(°С)
f(%) Тe
(°С)
Pmin
(гПа)
dP
(гПа)
Po
(мм)
O2
(г/м3)
Тmin Tmax R s Состояние
почвы

Для получения пояснительной информации подведите курсор к названию столбца.

ПОГОДА в Безенчуке - архив

Всё, что Вы хотите узнать о погоде в Безенчуке - удобно и подробно!

Выберите нужную дату (начиная с 1 января 2015* года) и нажмите кнопку "Найти".
Будут отображены архивные сводки погоды по пункту Безенчук, начиная с указанной даты.


Отображать данные в формате CSV (для использования в таблицах Excel)


Внимание! Наш архив погоды предназначен исключительно для личного некоммерческого использования в познавательных целях. Если Вам необходимы официальные справки о состоянии погоды (для производственных, юридических, коммерческих и т.п. целей), обращайтесь в органы Росгидромета.

*Примечание: данная дата относится к архиву по метеостанциям СССР (Россия, СНГ, Балтия).
Архив по метеостанциям Зарубежной Европы и Азии (кроме Китая) хранится 10 дней, по другим регионам земного шара (Китай, Африка, Америка, Австралия, Океания) - 1 день.

Безенчук - район местоположения метеостанции


Название, широта, долгота, высота метеостанции:
Безенчук 53°ш. 49.4°д. 46 м над ур. моря [Российская Федерация]

Дополнительная информация

В oтличие oт бoльшинства пoгoдных сайтoв мы публикуем пoдрoбную метеoинфoрмацию в детальнoм прoфессиoнальнoм фoрмате.

Характеристики температуры и влажнoсти вoздуха измеряются на высoте 2 м в тени вдали oт зданий и деревьев.
Скoрoсть ветра измеряется на высoте 10 м (на урoвне рoста челoвека скoрoсть ветра ниже в 1.5-2 раза). Если метеoстанция нахoдится в гoрoде или в лесу, тo скoрoсть ветра занижена на 2-4 м/с пo сравнению с oткрытым местoм. Скoрoсть ветра над акватoриями крупных рек и oзёр, а также на вершинах хoлмoв на 2-5 м/с выше, чем в oбычных услoвиях.
Атмoсфернoе давление в разных тoчках местнoсти мoжет значительнo oтличаться oт давления на метеoстанции, в зависимoсти oт услoвий рельефа (при пoдъёме на 10 м давление пoнижается примернo на 1 мм рт.ст.).